Zurück zum Katalog

COSMOS 886 DEB

AktivUNKNOWN
NORAD 9820·DEBRIS·🇷🇺 Russia

Gestartet Dec 27, 1976 von Baikonur Cosmodrome

Loading…

Nächste Überflüge (nächste 24 Stunden)

TLE

AktuellSource: Space-Track

Epoche: Sep 14, 2026, 08:49 UTC

1 09820U 76126AG  26257.36804463 -.00000085  00000-0 -16852-3 0  9997
2 09820  65.7998  31.3140 0868718 119.9975 279.0579 11.92829207 35015

Verfolge COSMOS 886 DEB in Echtzeit mit AllMySat

Download on the App Store